This demonstration page uses our WeatherBlox Daily Observations layout. Learn more.

Left ArrowRight Arrow

39.51506, -84.39828

Hourly Observations for March 10, 2017

Temp ( °F °C ) Dew Point ( °F °C ) Humidity (%) Winds ( mph kmh ) Pressure ( in mb ) Visibility ( mi km ) Precip ( " mm )
12:15 am 00:15 Cloudy with Light Snow 39 4 32 0 75 75 NNE 7 11 30.03 1017 7 11 0.00 0.00
12:35 am 00:35 Cloudy with Light Snow 39 4 33 0.3 77 77 NNE 6 9 30.00 1016 7 11 0.00 0.00
12:55 am 00:55 Cloudy 39 4 33 0.3 77 77 N 9 15 30.00 1016 10 16 0.00 0.00
1:15 am 01:15 Cloudy 39 4 33 0.3 77 77 N 7 11 30.00 1016 10 16 0.00 0.00
1:35 am 01:35 Cloudy 39 4 33 0.5 78 78 N 8 13 30.00 1016 10 16 0.00 0.00
1:55 am 01:55 Cloudy 39 4 33 0.5 78 78 N 7 11 30.00 1016 10 16 0.00 0.00
2:15 am 02:15 Cloudy 39 4 33 0.5 78 78 NNW 6 9 30.03 1017 10 16 0.00 0.00
2:35 am 02:35 Cloudy 39 4 33 0.3 77 77 N 7 11 30.03 1017 10 16 0.00 0.00
2:55 am 02:55 Cloudy 39 4 33 0.3 77 77 NW 8 13 30.09 1019 10 16 0.00 0.00
3:15 am 03:15 Cloudy 39 4 33 0.3 77 77 N 8 13 30.09 1019 10 16 0.00 0.00
3:35 am 03:35 Cloudy 39 4 32 0.1 76 76 N 13 20 30.09 1019 10 16 0.00 0.00
3:55 am 03:55 Cloudy 39 3.9 32 0.2 77 77 N 15 24 30.12 1020 10 16 0.00 0.00
4:15 am 04:15 Cloudy 37 2.6 29 -1.5 75 75 N 9 15 30.12 1020 10 16 0.00 0.00
4:35 am 04:35 Cloudy 37 2.6 30 -1 77 77 N 9 15 30.12 1020 10 16 0.00 0.00
4:55 am 04:55 Cloudy 37 2.6 29 -1.9 73 73 NNW 13 20 30.15 1021 10 16 0.00 0.00
5:15 am 05:15 Mostly Cloudy 37 2.6 21 -6 53 53 N 16 26 30.15 1021 10 16 0.00 0.00
5:35 am 05:35 Partly Cloudy 36 2.4 21 -5.9 55 55 N 12 19 30.18 1022 10 16 0.00 0.00
5:55 am 05:55 Mostly Cloudy 36 2.1 20 -6.5 53 53 NNW 12 19 30.18 1022 10 16 0.00 0.00
6:15 am 06:15 Cloudy 35 1.4 19 -7.1 54 54 NNW 9 15 30.18 1022 10 16 0.00 0.00
6:35 am 06:35 Cloudy 34 1.3 19 -7.3 53 53 NNW 8 13 30.21 1023 10 16 0.00 0.00
6:55 am 06:55 Mostly Cloudy 34 1.2 20 -6.4 57 57 NW 7 11 30.21 1023 10 16 0.00 0.00
7:15 am 07:15 Partly Cloudy 34 1.2 17 -8.5 49 49 NW 7 11 30.24 1024 10 16 0.00 0.00
7:35 am 07:35 Sunny 34 1.2 16 -8.8 48 48 NW 7 11 30.24 1024 10 16 0.00 0.00
7:55 am 07:55 Partly Cloudy 34 1.2 14 -9.9 44 44 NW 8 13 30.24 1024 10 16 0.00 0.00
8:15 am 08:15 Sunny 35 1.7 13 -10.4 41 41 NNW 9 15 30.27 1025 10 16 0.00 0.00
8:35 am 08:35 Sunny 36 2.3 11 -11.5 36 36 NNW 10 17 30.27 1025 10 16 0.00 0.00
8:55 am 08:55 Sunny 37 2.6 9 -12.9 31 31 NNW 15 24 30.27 1025 10 16 0.00 0.00
9:15 am 09:15 Sunny 37 2.6 9 -12.8 31 31 NNW 15 24 30.27 1025 10 16 0.00 0.00
9:35 am 09:35 Sunny 37 2.7 11 -11.6 34 34 N 14 22 30.30 1026 10 16 0.00 0.00
9:55 am 09:55 Sunny 39 3.7 13 -10.7 34 34 NW 13 20 30.30 1026 10 16 0.00 0.00
10:15 am 10:15 Sunny 39 4 14 -10.1 35 35 NW 13 20 30.30 1026 10 16 0.00 0.00
10:35 am 10:35 Partly Cloudy 39 4 15 -9.2 38 38 NNW 12 19 30.30 1026 10 16 0.00 0.00
10:55 am 10:55 Partly Cloudy 39 4 14 -10.1 35 35 NW 13 20 30.30 1026 10 16 0.00 0.00
11:15 am 11:15 Mostly Cloudy 39 4 16 -8.8 39 39 NW 9 15 30.33 1027 10 16 0.00 0.00
11:35 am 11:35 Cloudy 39 4 14 -9.8 36 36 WNW 13 20 30.33 1027 10 16 0.00 0.00
11:55 am 11:55 Mostly Cloudy 39 4 11 -11.4 32 32 NNW 14 22 30.33 1027 10 16 0.00 0.00
12:15 pm 12:15 Mostly Cloudy 39 4 15 -9.6 37 37 NW 14 22 30.33 1027 10 16 0.00 0.00
12:35 pm 12:35 Mostly Cloudy 40 4.7 13 -10.6 32 32 WNW 15 24 30.33 1027 10 16 0.00 0.00
12:55 pm 12:55 Mostly Cloudy 40 4.5 12 -11.2 31 31 NW 13 20 30.33 1027 10 16 0.00 0.00
1:15 pm 13:15 Mostly Cloudy 40 4.2 10 -12.2 29 29 NNW 16 26 30.30 1026 10 16 0.00 0.00
1:35 pm 13:35 Mostly Cloudy 41 5 10 -12.1 28 28 NW 14 22 30.30 1026 10 16 0.00 0.00
1:55 pm 13:55 Mostly Cloudy 41 4.9 9 -12.9 27 27 WNW 14 22 30.30 1026 10 16 0.00 0.00
2:15 pm 14:15 Mostly Cloudy 40 4.6 6 -14.4 24 24 W 17 28 30.30 1026 10 16 0.00 0.00
2:35 pm 14:35 Mostly Cloudy 41 4.9 9 -12.7 27 27 WNW 12 19 30.30 1026 10 16 0.00 0.00
2:55 pm 14:55 Mostly Cloudy 39 4 10 -12.2 30 30 NW 12 19 30.33 1027 10 16 0.00 0.00
3:15 pm 15:15 Partly Cloudy 41 4.8 7 -14 24 24 W 18 30 30.33 1027 10 16 0.00 0.00
3:35 pm 15:35 Partly Cloudy 40 4.3 7 -14.1 25 25 NW 17 28 30.33 1027 10 16 0.00 0.00
3:55 pm 15:55 Partly Cloudy 40 4.3 6 -14.7 24 24 WNW 13 20 30.33 1027 10 16 0.00 0.00
4:15 pm 16:15 Partly Cloudy 40 4.7 4 -15.4 22 22 W 14 22 30.33 1027 10 16 0.00 0.00
4:35 pm 16:35 Mostly Cloudy 40 4.7 4 -15.4 22 22 NW 13 20 30.33 1027 10 16 0.00 0.00
4:55 pm 16:55 Mostly Cloudy 39 4 3 -16.3 21 21 NW 13 20 30.33 1027 10 16 0.00 0.00
5:15 pm 17:15 Partly Cloudy 39 4 -2 -18.7 17 17 WNW 16 26 30.36 1028 10 16 0.00 0.00
5:35 pm 17:35 Partly Cloudy 39 4 -1 -18.4 18 18 WNW 12 19 30.33 1027 10 16 0.00 0.00
5:55 pm 17:55 Partly Cloudy 39 3.8 -2 -18.7 18 18 W 14 22 30.36 1028 10 16 0.00 0.00
6:15 pm 18:15 Partly Cloudy 37 2.6 -2 -18.8 19 19 WNW 15 24 30.36 1028 10 16 0.00 0.00
6:35 pm 18:35 Sunny 37 2.5 1 -17.1 22 22 WNW 10 17 30.36 1028 10 16 0.00 0.00
6:55 pm 18:55 Clear 34 1.2 1 -17.2 24 24 NW 14 22 30.39 1029 10 16 0.00 0.00
7:15 pm 19:15 Clear 34 1.2 2 -16.6 25 25 NNW 9 15 30.39 1029 10 16 0.00 0.00
7:35 pm 19:35 Clear 34 1.2 4 -15.6 28 28 NW 9 15 30.39 1029 10 16 0.00 0.00
7:55 pm 19:55 Clear 34 1.2 1 -17.5 24 24 NW 8 13 30.39 1029 10 16 0.00 0.00
8:15 pm 20:15 Clear 34 1.2 1 -17.3 24 24 NW 10 17 30.39 1029 10 16 0.00 0.00
8:35 pm 20:35 Clear 33 0.8 2 -16.7 26 26 NW 12 19 30.39 1029 10 16 0.00 0.00
8:55 pm 20:55 Clear 32 0 4 -15.3 31 31 NNW 8 13 30.39 1029 10 16 0.00 0.00
9:15 pm 21:15 Clear 31 -0.8 8 -13.6 38 38 NNW 9 15 30.39 1029 10 16 0.00 0.00
9:35 pm 21:35 Clear 29 -1.5 7 -14 38 38 NNW 7 11 30.39 1029 10 16 0.00 0.00
9:55 pm 21:55 Clear 29 -1.5 9 -13 42 42 N 10 17 30.39 1029 10 16 0.00 0.00
10:15 pm 22:15 Clear 29 -1.5 8 -13.2 41 41 N 9 15 30.39 1029 10 16 0.00 0.00
10:35 pm 22:35 Clear 29 -1.5 9 -12.8 42 42 N 9 15 30.39 1029 10 16 0.00 0.00
10:55 pm 22:55 Clear 29 -1.5 10 -12.4 44 44 N 6 9 30.39 1029 10 16 0.00 0.00
11:15 pm 23:15 Clear 27 -2.8 6 -14.2 41 41 N 7 11 30.42 1030 10 16 0.00 0.00
11:35 pm 23:35 Clear 27 -2.8 4 -15.3 38 38 N 9 15 30.42 1030 10 16 0.00 0.00
11:55 pm 23:55 Clear 27 -2.8 4 -15.6 37 37 NNW 8 13 30.42 1030 10 16 0.00 0.00

Powered by AerisWeather